CW7710 Weather Reports


Display with metric or nautical units.
time (UTC)temp
F
wind
direction
speed
MPH
gust
MPH
rain 1hr
in
rain 24hr
in
rain mn
in
humidity
%
barometer
mb
20260505213332 51 5 11.0 0.0 0.00 0.00 0.00 37 1016.8
20260505212340 50 316 10.0 0.0 0.00 0.00 0.00 36 1016.8
20260505211344 50 352 9.0 0.0 0.00 0.00 0.00 37 1017.2
20260505210327 50 39 4.0 0.0 0.00 0.00 0.00 39 1017.2
20260505205356 49 277 4.0 0.0 0.00 0.00 0.00 45 1017.3
20260505204339 48 170 5.0 0.0 0.00 0.00 0.00 45 1017.3
20260505203343 48 84 4.0 0.0 0.00 0.00 0.00 44 1017.3
20260505202347 48 97 2.0 0.0 0.00 0.00 0.00 44 1017.4
20260505201350 48 59 4.0 0.0 0.00 0.00 0.00 44 1017.4
20260505200336 48 73 5.0 0.0 0.00 0.00 0.00 44 1016.6
20260505195340 48 360 7.0 0.0 0.00 0.00 0.00 44 1017.3
20260505194405 49 97 6.0 0.0 0.00 0.00 0.00 43 1017.4
20260505193327 48 325 4.0 0.0 0.00 0.00 0.00 44 1017.4
20260505192351 48 46 4.0 0.0 0.00 0.00 0.00 44 1017.5
20260505191338 49 87 7.0 0.0 0.00 0.00 0.00 44 1017.5
20260505190343 48 71 8.0 0.0 0.00 0.00 0.00 44 1017.5
20260505185327 48 97 11.0 0.0 0.00 0.00 0.00 46 1017.1
20260505184331 47 53 15.0 0.0 0.00 0.00 0.00 48 1017.1
20260505183342 48 72 16.0 0.0 0.00 0.00 0.00 47 1017.1
20260505182326 48 53 7.0 0.0 0.00 0.00 0.00 44 1017.1
20260505181330 47 31 7.0 0.0 0.00 0.00 0.00 45 1017.2
20260505180334 47 74 11.0 0.0 0.00 0.00 0.00 45 1016.3
20260505175402 47 76 10.0 0.0 0.00 0.00 0.00 44 1017.1
20260505174324 47 92 14.0 0.0 0.00 0.00 0.00 44 1017.2
20260505173331 47 65 14.0 0.0 0.00 0.00 0.00 44 1017.0
20260505172335 48 78 12.0 0.0 0.00 0.00 0.00 44 1017.1
20260505171342 47 61 12.0 0.0 0.00 0.00 0.00 43 1017.1
20260505170326 48 73 11.0 0.0 0.00 0.00 0.00 44 1017.0
20260505165350 48 48 7.0 0.0 0.00 0.00 0.00 43 1017.5
20260505164333 47 54 8.0 0.0 0.00 0.00 0.00 45 1017.0
20260505163341 47 39 9.0 0.0 0.00 0.00 0.00 45 1017.0
20260505162343 47 84 8.0 0.0 0.00 0.00 0.00 46 1017.1
20260505161328 47 15 5.0 0.0 0.00 0.00 0.00 48 1017.1
20260505160332 46 351 6.0 0.0 0.00 0.00 0.00 50 1017.1
20260505153331 45 340 7.0 0.0 0.00 0.00 0.00 52 1017.2
20260505152338 45 306 5.0 0.0 0.00 0.00 0.00 54 1018.0
20260505151402 44 285 5.0 0.0 0.00 0.00 0.00 53 1017.6
20260505150350 43 322 4.0 0.0 0.00 0.00 0.00 57 1017.5
20260505140341 38 350 3.0 0.0 0.00 0.00 0.00 70 1017.8
20260505124403 30 55 1.0 0.0 0.00 0.00 0.00 76 1017.3
20260505123326 29 23 1.0 0.0 0.00 0.00 0.00 76 1017.4
20260505122350 30 23 1.0 0.0 0.00 0.00 0.00 75 1017.2
20260505121357 31 23 3.0 0.0 0.00 0.00 0.00 76 1017.1
20260505120327 30 117 6.0 0.0 0.00 0.00 0.00 76 1017.2
20260505115340 29 117 2.0 0.0 0.00 0.00 0.00 75 1016.8
20260505114405 29 176 3.0 0.0 0.00 0.00 0.00 75 1016.8
20260505113326 28 176 1.0 0.0 0.00 0.00 0.00 74 1016.8
20260505112331 29 176 1.0 0.0 0.00 0.00 0.00 73 1016.7
20260505111339 30 176 1.0 0.0 0.00 0.00 0.00 73 1016.4
20260505110343 30 121 2.0 0.0 0.00 0.00 0.00 73 1016.4
20260505101327 32 277 6.0 0.0 0.00 0.00 0.00 71 1016.9
20260505100334 32 284 8.0 0.0 0.00 0.00 0.00 70 1016.8
20260505095322 33 269 7.0 0.0 0.00 0.00 0.00 69 1016.5
20260505094330 33 275 6.0 0.0 0.00 0.00 0.00 69 1016.6
20260505093334 33 277 4.0 0.0 0.00 0.00 0.00 69 1016.6
20260505092359 33 255 3.0 0.0 0.00 0.00 0.00 68 1016.9
20260505091326 32 275 3.0 0.0 0.00 0.00 0.00 67 1016.9
20260505090330 33 214 4.0 0.0 0.00 0.00 0.00 66 1016.7
20260505085335 34 203 3.0 0.0 0.00 0.00 0.00 65 1016.4
20260505084342 34 194 5.0 0.0 0.00 0.00 0.00 64 1016.5
20260505083350 35 186 4.0 0.0 0.00 0.00 0.00 62 1017.0
20260505082345 36 225 3.0 0.0 0.00 0.00 0.00 59 1017.2
20260505081333 37 293 2.0 0.0 0.00 0.00 0.00 55 1016.9
20260505080337 40 307 3.0 0.0 0.00 0.00 0.00 52 1016.6
20260505075342 42 312 3.0 0.0 0.00 0.00 0.00 50 1017.1
20260505074326 42 283 3.0 0.0 0.00 0.00 0.00 51 1017.0
20260505073335 43 314 3.0 0.0 0.00 0.00 0.00 51 1017.0
20260505072338 42 309 2.0 0.0 0.00 0.00 0.00 54 1017.0
20260505071341 39 304 4.0 0.0 0.00 0.00 0.00 59 1016.6
20260505070326 39 221 5.0 0.0 0.00 0.00 0.00 57 1016.7
20260505065329 40 240 3.0 0.0 0.00 0.00 0.00 54 1016.4
20260505064337 42 276 2.0 0.0 0.00 0.00 0.00 52 1016.9
20260505063402 44 317 3.0 0.0 0.00 0.00 0.00 50 1016.6
20260505062344 44 31 5.0 0.0 0.00 0.00 0.00 50 1016.6
20260505061328 45 19 9.0 0.0 0.00 0.00 0.00 50 1017.1
20260505060336 45 9 8.0 0.0 0.00 0.00 0.00 50 1017.0
20260505055343 45 12 6.0 0.0 0.00 0.00 0.00 50 1016.6
20260505054328 45 31 5.0 0.0 0.00 0.00 0.00 51 1016.6
20260505053333 45 58 2.0 0.0 0.00 0.00 0.00 52 1016.5
20260505052341 45 146 2.0 0.0 0.00 0.00 0.00 53 1016.5
20260505051326 46 218 2.0 0.0 0.00 0.00 0.00 52 1016.4
20260505050349 46 286 1.0 0.0 0.00 0.00 0.00 52 1016.6
20260505041332 47 6 4.0 0.0 0.00 0.00 0.00 50 1016.3
20260505035403 48 360 2.0 0.0 0.00 0.00 0.00 51 1016.2
20260505034326 48 31 5.0 0.0 0.00 0.00 0.00 53 1016.1
20260505033333 49 28 3.0 0.0 0.00 0.00 0.00 52 1015.9
20260505032338 49 13 5.0 0.0 0.00 0.00 0.00 52 1015.7
20260505031326 50 1 9.0 0.0 0.00 0.00 0.00 52 1016.0
20260505030353 50 344 12.0 0.0 0.00 0.00 0.00 51 1015.7
20260505025337 51 359 13.0 0.0 0.00 0.00 0.00 50 1015.6
20260505024339 51 13 9.0 0.0 0.00 0.00 0.00 49 1015.5
20260505023344 51 18 3.0 0.0 0.00 0.00 0.00 50 1015.2
20260505022332 51 68 9.0 0.0 0.00 0.00 0.00 50 1015.1
20260505021356 51 65 11.0 0.0 0.00 0.00 0.00 49 1015.2
20260505020339 51 53 10.0 0.0 0.00 0.00 0.00 49 1015.1
20260505015343 52 57 11.0 0.0 0.00 0.00 0.00 49 1014.5
20260505014331 52 42 15.0 0.0 0.00 0.00 0.00 48 1014.5
20260505013335 52 61 15.0 0.0 0.00 0.00 0.00 48 1014.4
20260505012339 52 61 16.0 0.0 0.00 0.00 0.00 47 1014.9
20260505011343 53 67 15.0 0.0 0.00 0.00 0.00 45 1014.9
20260505010331 54 65 14.0 0.0 0.00 0.00 0.00 44 1014.9
20260505005335 55 352 13.0 0.0 0.00 0.00 0.00 43 1014.4
20260505004340 55 3 15.0 0.0 0.00 0.00 0.00 42 1014.7
20260505003344 55 346 13.0 0.0 0.00 0.00 0.00 41 1014.6
20260505002332 55 5 15.0 0.0 0.00 0.00 0.00 41 1014.6
20260505001336 56 359 15.0 0.0 0.00 0.00 0.00 41 1014.3
20260505000340 56 24 16.0 0.0 0.00 0.00 0.00 41 1014.1
20260504235343 56 28 16.0 0.0 0.00 0.00 0.00 41 1014.6
20260504234332 56 356 18.0 0.0 0.00 0.00 0.00 40 1014.6
20260504233336 56 16 17.0 0.0 0.00 0.00 0.00 39 1014.5
20260504232340 57 17 16.0 0.0 0.00 0.00 0.00 39 1014.3
20260504231344 57 9 17.0 0.0 0.00 0.00 0.00 39 1014.2
20260504230331 56 352 16.0 0.0 0.00 0.00 0.00 39 1014.2
20260504225355 57 339 16.0 0.0 0.00 0.00 0.00 39 1013.9
20260504224357 57 354 13.0 0.0 0.00 0.00 0.00 40 1013.8
20260504223340 57 4 16.0 0.0 0.00 0.00 0.00 40 1013.7
20260504222324 57 348 15.0 0.0 0.00 0.00 0.00 40 1013.7
20260504221335 57 5 13.0 0.0 0.00 0.00 0.00 40 1013.7
20260504220342 57 352 16.0 0.0 0.00 0.00 0.00 40 1014.7
20260504215326 58 7 14.0 0.0 0.00 0.00 0.00 39 1013.3
20260504214330 60 16 14.0 0.0 0.00 0.00 0.00 38 1013.6